Hourly Data Report for November 01, 2019

TORONTO CITY
ONTARIO
Current Station Operator: ECCC - MSC

43°40'00.000" N
79°24'00.000" W
112.50 m
6158355
71508
XTO

Download Data

Hourly Data (November 2019)
Hourly Data Report for November 1, 2019
TIME
LST
Temp Definition
°C
Dew Point Definition
°C
Rel Hum Definition
%
Precip. Amount Definition
mm

Wind Dir Definition
10's deg

Wind Spd Definition
km/h
Visibility Definition
km
Stn Press Definition
kPa
Hmdx Definition


Wind Chill Definition


Weather Definition


00:00 7.0 3.5 78 0.0       98.17     LegendNANA
01:00 5.5 0.0 68 0.0       98.44     LegendNANA
02:00 4.7 -0.9 67 0.0       98.75     LegendNANA
03:00 3.9 -0.2 75 0.0       99.00     LegendNANA
04:00 3.7 -0.4 74 0.0       99.23     LegendNANA
05:00 3.9 -1.1 70 0.0       99.49     LegendNANA
06:00 3.9 -1.5 68 0.0       99.73     LegendNANA
07:00 3.8 -2.9 62 0.0       99.95     LegendNANA
08:00 4.0 -4.0 56 0.0       100.15     LegendNANA
09:00 4.1 -4.4 54 0.0       100.33     LegendNANA
10:00 4.6 -4.8 51 0.0       100.44     LegendNANA
11:00 5.1 -4.7 49 0.0       100.54     LegendNANA
12:00 5.3 -4.3 50 0.0       100.59     LegendNANA
13:00 5.1 -2.5 58 0.0       100.64     LegendNANA
14:00 4.7 -1.3 65 0.0       100.74     LegendNANA
15:00 4.7 -2.4 60 0.0       100.85     LegendNANA
16:00 4.9 -3.2 56 0.0       100.94     LegendNANA
17:00 4.7 -3.9 54 0.0       100.99     LegendNANA
18:00 4.4 -4.1 54 0.0       101.00     LegendNANA
19:00 4.0 -4.4 54 0.0       101.03     LegendNANA
20:00 4.0 -4.5 54 0.0       100.98     LegendNANA
21:00 3.9 -3.9 57 0.0       100.99     LegendNANA
22:00 3.6 -3.8 58 0.0       100.97     LegendNANA
23:00 3.9 -3.2 60 0.0       100.93     LegendNANA

Notes on Data Quality.

Legend

  • E = Estimated
  • M = Missing
  • NA = Not Available*
  • [empty] = Indicates an unobserved value
Date modified: